FW1936 Weather Reports


time (UTC)temp
F
wind
direction
speed
knots
gust
knots
rain 1hr
in
rain 24hr
in
rain mn
in
humidity
%
barometer
mb
20260505162526 60 8 3.5 8.7 0.00 0.00 0.00 63 1008.4
20260505162027 60 354 2.6 3.5 0.00 0.00 0.00 65 1008.4
20260505161530 60 15 3.5 4.3 0.00 0.00 0.00 65 1008.4
20260505161025 60 15 3.5 4.3 0.00 0.00 0.00 65 1008.4
20260505153026 59 2 2.6 0.9 0.00 0.00 0.00 64 1008.5
20260505152526 59 2 2.6 2.6 0.00 0.00 0.00 64 1008.5
20260505151526 60 17 2.6 3.5 0.00 0.00 0.00 63 1008.6
20260505151026 60 3 2.6 0.0 0.00 0.00 0.00 63 1008.6
20260505150526 60 3 2.6 3.5 0.00 0.00 0.00 62 1008.6
20260505140526 61 37 2.6 2.6 0.00 0.00 0.00 63 1008.8
20260505124530 61 334 2.6 4.3 0.00 0.00 0.00 65 1009.1
20260505124026 61 343 2.6 2.6 0.00 0.00 0.00 65 1009.1
20260505123026 61 8 1.7 2.6 0.00 0.00 0.00 66 1009.0
20260505122526 61 65 1.7 2.6 0.00 0.00 0.00 65 1009.0
20260505121530 61 356 1.7 1.7 0.00 0.00 0.00 64 1009.1
20260505121025 61 356 1.7 2.6 0.00 0.00 0.00 64 1009.1
20260505120526 60 32 1.7 0.9 0.00 0.00 0.00 66 1009.1
20260505120026 60 32 1.7 0.0 0.00 0.00 0.00 67 1009.1
20260505115526 60 59 2.6 1.7 0.00 0.00 0.00 66 1009.1
20260505115026 60 51 1.7 1.7 0.00 0.00 0.00 64 1009.1
20260505114527 60 51 1.7 4.3 0.00 0.00 0.00 64 1009.2
20260505114027 60 51 1.7 3.5 0.00 0.00 0.00 65 1009.2
20260505113026 59 35 2.6 2.6 0.00 0.00 0.00 66 1009.4
20260505112526 59 35 2.6 4.3 0.00 0.00 0.00 66 1009.4
20260505112026 59 50 3.5 2.6 0.00 0.00 0.00 68 1009.4
20260505111527 59 2 2.6 1.7 0.00 0.00 0.00 68 1009.5
20260505111025 59 2 2.6 2.6 0.00 0.00 0.00 69 1009.5
20260505110526 59 2 2.6 2.6 0.00 0.00 0.00 71 1009.5
20260505102025 58 358 1.7 4.3 0.00 0.00 0.00 70 1009.8
20260505100025 58 28 3.5 3.5 0.00 0.00 0.00 72 1009.9
20260505095530 57 28 3.5 1.7 0.00 0.00 0.00 72 1009.9
20260505095025 57 32 2.6 4.3 0.00 0.00 0.00 74 1009.9
20260505094529 57 32 2.6 4.3 0.00 0.00 0.00 75 1009.9
20260505092025 56 25 3.5 1.7 0.00 0.00 0.00 80 1010.0
20260505091525 56 25 3.5 2.6 0.00 0.00 0.00 79 1010.0
20260505091036 56 15 3.5 2.6 0.00 0.00 0.00 80 1010.0
20260505090526 56 15 3.5 1.7 0.00 0.00 0.00 80 1010.0
20260505090032 56 15 1.7 3.5 0.00 0.00 0.00 81 1010.1
20260505085526 56 15 1.7 3.5 0.00 0.00 0.00 82 1010.1
20260505084526 55 13 2.6 1.7 0.00 0.00 0.00 81 1010.1
20260505084025 55 332 2.6 1.7 0.00 0.00 0.00 82 1010.1
20260505083031 55 347 2.6 3.5 0.00 0.00 0.00 83 1010.1
20260505082531 55 347 2.6 2.6 0.00 0.00 0.00 84 1010.1
20260505082025 55 346 2.6 3.5 0.00 0.00 0.00 85 1010.1
20260505081026 54 358 3.5 3.5 0.00 0.00 0.00 85 1010.2
20260505075529 53 11 3.5 3.5 0.00 0.00 0.00 84 1010.1
20260505075025 53 338 1.7 3.5 0.00 0.00 0.00 83 1010.1
20260505074526 53 338 1.7 3.5 0.00 0.00 0.00 82 1010.2
20260505074026 53 331 2.6 2.6 0.00 0.00 0.00 80 1010.2
20260505073525 52 331 2.6 2.6 0.00 0.00 0.00 80 1010.2
20260505073026 52 318 1.7 3.5 0.00 0.00 0.00 79 1010.2
20260505072530 52 318 1.7 1.7 0.00 0.00 0.00 79 1010.2
20260505072025 51 11 1.7 1.7 0.00 0.00 0.00 77 1010.2
20260505071525 51 11 1.7 1.7 0.00 0.00 0.00 77 1010.3
20260505071032 51 320 1.7 1.7 0.00 0.00 0.00 77 1010.3
20260505070026 50 299 1.7 1.7 0.00 0.00 0.00 77 1010.3
20260505065530 50 299 1.7 2.6 0.00 0.00 0.00 77 1010.3
20260505063526 50 300 0.9 0.9 0.00 0.00 0.00 78 1010.2
20260505062525 49 300 0.9 1.7 0.00 0.00 0.00 78 1010.3
20260505062031 49 310 0.9 0.0 0.00 0.00 0.00 78 1010.3
20260505061532 49 310 0.9 2.6 0.00 0.00 0.00 78 1010.5
20260505061025 49 279 0.0 0.9 0.00 0.00 0.00 78 1010.5
20260505060525 49 279 0.0 0.0 0.00 0.00 0.00 78 1010.5
20260505055525 49 269 0.0 0.0 0.00 0.00 0.00 78 1010.4
20260505055026 49 269 0.0 0.0 0.00 0.00 0.00 78 1010.4
20260505054025 48 269 0.0 0.0 0.00 0.00 0.00 79 1010.6
20260505053530 48 269 0.0 0.0 0.00 0.00 0.00 79 1010.6
20260505053030 48 269 0.0 0.0 0.00 0.00 0.00 79 1010.5
20260505052530 48 269 0.0 0.0 0.00 0.00 0.00 79 1010.5
20260505052026 48 269 0.0 0.0 0.00 0.00 0.00 79 1010.5
20260505051025 48 269 0.0 0.0 0.00 0.00 0.00 79 1010.5
20260505050529 48 269 0.0 0.0 0.00 0.00 0.00 79 1010.5
20260505041530 48 339 0.0 1.7 0.00 0.00 0.00 79 1010.6
20260505041025 48 339 0.0 1.7 0.00 0.00 0.00 79 1010.6
20260505040029 48 339 0.0 0.0 0.00 0.00 0.00 79 1010.5
20260505035528 48 339 0.0 0.0 0.00 0.00 0.00 79 1010.5
20260505035025 48 339 0.0 0.0 0.00 0.00 0.00 79 1010.5
20260505034525 48 339 0.0 0.9 0.00 0.00 0.00 79 1010.3
20260505034025 48 339 0.0 0.0 0.00 0.00 0.00 79 1010.3
20260505033529 48 339 0.0 0.9 0.00 0.00 0.00 79 1010.3
20260505032525 47 322 0.9 0.0 0.00 0.00 0.00 79 1010.4
20260505032025 47 98 0.0 1.7 0.00 0.00 0.00 80 1010.4
20260505031526 47 84 0.0 0.0 0.00 0.00 0.00 80 1010.4
20260505031032 47 84 0.0 0.0 0.00 0.00 0.00 80 1010.4
20260505030525 47 84 0.0 0.0 0.00 0.00 0.00 80 1010.4
20260505030031 47 354 0.0 0.0 0.00 0.00 0.00 80 1010.6
20260505025530 47 354 0.0 0.0 0.00 0.00 0.00 81 1010.6
20260505025025 46 1 1.7 0.0 0.00 0.00 0.00 81 1010.6
20260505024525 46 1 1.7 0.0 0.00 0.00 0.00 81 1010.3
20260505024024 46 349 0.9 1.7 0.00 0.00 0.00 82 1010.3
20260505023525 45 349 0.9 3.5 0.00 0.00 0.00 83 1010.3
20260505023024 45 16 0.0 0.0 0.00 0.00 0.00 85 1010.6
20260505022524 45 16 0.0 0.0 0.00 0.00 0.00 86 1010.6
20260505022026 45 45 0.0 0.0 0.00 0.00 0.00 86 1010.6
20260505021529 45 45 0.0 0.0 0.00 0.00 0.00 86 1010.7
20260505021025 45 45 0.0 0.0 0.00 0.00 0.00 86 1010.7
20260505020030 46 45 0.0 0.0 0.00 0.00 0.00 86 1010.9
20260505015526 46 45 0.0 0.0 0.00 0.00 0.00 86 1010.9
20260505015025 46 45 0.0 0.0 0.00 0.00 0.00 86 1010.9
20260505014525 46 45 0.0 0.0 0.00 0.00 0.00 86 1010.9
20260505014025 47 45 0.0 0.0 0.00 0.00 0.00 86 1010.9
20260505013027 47 45 0.0 0.0 0.00 0.00 0.00 86 1011.0
20260505012529 47 45 0.0 0.0 0.00 0.00 0.00 86 1011.0
20260505012025 47 45 0.0 0.0 0.00 0.00 0.00 87 1011.0
20260505011526 47 45 0.0 0.0 0.00 0.00 0.00 87 1010.9
20260505011025 48 45 0.0 0.0 0.00 0.00 0.00 87 1010.9
20260505010525 48 45 0.0 0.0 0.00 0.00 0.00 87 1010.9
20260505010025 48 45 0.0 0.0 0.00 0.00 0.00 87 1010.8
20260505005524 48 45 0.0 0.0 0.00 0.00 0.00 87 1010.8
20260505005025 48 45 0.0 0.0 0.00 0.00 0.00 87 1010.8
20260505004525 48 45 0.0 0.0 0.00 0.00 0.00 87 1011.0
20260505004030 48 45 0.0 0.0 0.00 0.00 0.00 87 1011.0
20260505003525 48 45 0.0 0.0 0.00 0.00 0.00 88 1011.0
20260505003025 48 45 0.9 0.0 0.00 0.00 0.00 88 1011.1
20260505002525 48 45 0.0 0.0 0.00 0.00 0.00 88 1011.1
20260505001529 49 45 0.0 1.7 0.00 0.00 0.00 87 1011.3
20260505001025 49 45 0.0 0.0 0.00 0.00 0.00 87 1011.3
20260505000525 50 45 0.0 0.0 0.00 0.00 0.00 87 1011.3
20260505000025 50 45 0.0 0.0 0.00 0.00 0.00 87 1011.5
20260504235025 50 45 0.0 0.9 0.00 0.00 0.00 87 1011.5
20260504234525 51 21 0.0 0.0 0.00 0.00 0.00 87 1011.5
20260504234025 51 21 0.0 0.0 0.00 0.00 0.00 87 1011.5
20260504233025 51 19 0.9 0.0 0.00 0.00 0.00 87 1011.5
20260504232025 52 35 0.0 1.7 0.00 0.00 0.00 86 1011.5
20260504231525 52 35 0.0 0.0 0.00 0.00 0.00 86 1011.5
20260504231030 52 35 0.9 0.0 0.00 0.00 0.00 86 1011.5
20260504230525 52 35 0.9 1.7 0.00 0.00 0.00 86 1011.5
20260504230034 52 31 1.7 1.7 0.00 0.00 0.00 85 1011.6
20260504225524 53 31 1.7 1.7 0.00 0.00 0.08 85 1011.6
20260504225025 53 35 1.7 2.6 0.00 0.00 0.08 85 1011.6
20260504224525 53 35 1.7 2.6 0.00 0.00 0.08 85 1011.6
20260504224025 53 52 1.7 1.7 0.00 0.00 0.08 86 1011.6
20260504223529 53 52 1.7 1.7 0.00 0.00 0.08 86 1011.6
20260504223025 53 50 1.7 1.7 0.00 0.00 0.08 86 1011.7
20260504222525 53 50 1.7 2.6 0.00 0.00 0.08 86 1011.7
20260504222025 53 49 1.7 2.6 0.00 0.00 0.08 86 1011.7
20260504221025 53 31 1.7 1.7 0.00 0.00 0.08 86 1011.8
20260504220525 53 31 1.7 2.6 0.00 0.00 0.08 86 1011.8
20260504220030 53 37 1.7 4.3 0.00 0.00 0.08 86 1011.8
20260504215525 53 37 1.7 1.7 0.00 0.00 0.08 85 1011.8
20260504215024 53 48 1.7 1.7 0.00 0.00 0.08 85 1011.8
20260504214524 53 48 1.7 4.3 0.00 0.00 0.08 85 1011.8
20260504214024 53 35 1.7 1.7 0.00 0.00 0.08 85 1011.8
20260504213024 54 30 1.7 1.7 0.00 0.00 0.08 85 1011.9
20260504212525 54 30 1.7 0.0 0.00 0.00 0.08 85 1011.9
20260504211525 54 38 2.6 2.6 0.00 0.00 0.08 85 1011.8
20260504211025 54 28 1.7 2.6 0.00 0.00 0.08 85 1011.8
20260504210524 54 28 1.7 5.2 0.00 0.00 0.08 85 1011.8
20260504210025 54 33 2.6 1.7 0.00 0.00 0.08 85 1011.8
20260504205525 54 37 1.7 1.7 0.00 0.00 0.08 84 1011.8
20260504205025 54 37 1.7 2.6 0.00 0.00 0.08 84 1011.8
20260504204024 54 38 3.5 0.9 0.00 0.00 0.08 84 1011.9
20260504202525 55 30 2.6 4.3 0.00 0.00 0.08 83 1011.8
20260504201525 55 27 2.6 3.5 0.00 0.00 0.08 84 1011.7
20260504201024 55 29 1.7 1.7 0.00 0.00 0.08 84 1011.7
20260504200525 55 29 1.7 3.5 0.00 0.00 0.08 84 1011.7
20260504195528 55 33 1.7 0.0 0.00 0.00 0.08 83 1011.6
20260504195024 56 32 1.7 2.6 0.00 0.00 0.08 83 1011.6
20260504194524 56 32 1.7 1.7 0.00 0.00 0.08 83 1011.5
20260504194025 56 42 0.9 4.3 0.00 0.00 0.08 83 1011.5
20260504193025 56 55 1.7 2.6 0.00 0.00 0.08 82 1011.4
20260504192529 56 55 1.7 1.7 0.00 0.00 0.08 82 1011.4
20260504192025 56 58 1.7 1.7 0.00 0.00 0.08 82 1011.4
20260504191529 56 58 1.7 0.0 0.00 0.00 0.08 82 1011.3
20260504191031 56 45 2.6 3.5 0.00 0.00 0.08 81 1011.3
20260504190526 56 39 1.7 0.0 0.00 0.00 0.08 81 1011.3
20260504190025 56 39 1.7 6.1 0.00 0.00 0.08 81 1011.2
20260504185025 56 35 1.7 2.6 0.00 0.00 0.08 81 1011.2
20260504184525 56 35 1.7 4.3 0.00 0.00 0.08 81 1011.1
20260504184030 56 42 2.6 3.5 0.00 0.00 0.08 80 1011.1
20260504183529 56 42 2.6 1.7 0.00 0.00 0.08 80 1011.1
20260504182525 57 41 3.5 1.7 0.00 0.00 0.08 80 1011.0
20260504182025 57 52 3.5 5.2 0.00 0.00 0.08 80 1011.0
20260504181525 57 52 3.5 1.7 0.00 0.00 0.08 79 1010.9
20260504181028 57 34 1.7 2.6 0.00 0.00 0.08 79 1010.9
20260504180026 57 31 2.6 0.9 0.00 0.00 0.08 80 1010.9
20260504175525 57 31 2.6 2.6 0.00 0.00 0.08 80 1010.9
20260504175024 57 41 3.5 4.3 0.00 0.00 0.08 79 1010.9
20260504174525 58 41 3.5 2.6 0.00 0.00 0.08 79 1010.7
20260504174024 58 33 3.5 5.2 0.00 0.00 0.08 78 1010.7
20260504173031 57 30 3.5 3.5 0.00 0.00 0.08 79 1010.9
20260504172529 58 30 3.5 4.3 0.00 0.00 0.08 78 1010.9
20260504172024 58 36 4.3 5.2 0.00 0.00 0.08 78 1010.9
20260504171524 58 36 4.3 3.5 0.00 0.00 0.08 78 1010.9
20260504171025 58 38 3.5 4.3 0.00 0.00 0.08 77 1010.9
20260504170524 58 34 3.5 6.1 0.00 0.00 0.08 79 1010.9